Location: ????????
(54.6123°N, 39.2099°E)
Time: 13:06:24
(UTC+00:00)

BREEZE-M R/B - Pass Details

Date: 19 May 2025
Orbit: 537 x 26536 km, 49.1° (Epoch: 15 June)

Event Time Altitude Azimuth Distance (km) Brightness Sun altitude
Rises 20:15:35 0° 289° (WNW) 8,406 8.8 -14.2°
Reaches altitude 10° 20:23:46 10° 282° (WNW) 4,981 7.5 -14.5°
Maximum altitude 20:31:59 28° 227° (SW) 1,735 4.5 -14.7°
Enters shadow 20:33:54 21° 188° (S) 1,663 4.2 -14.8°
